Hourly Weather Roundup
Issued by NWS Central Illinois

Home | Current Version | Previous Version | Text Only | Print | Product List | Glossary On
Versions: 1 2 3 4 5 6 7 8 9 10 11 12 13 14 15 16 17 18 19 20 21 22 23 24 25 26 27 28 29 30 31 32 33 34 35 36 37 38 39 40 41 42 43 44 45 46 47 48 49 50
000
NZUS43 KILX 031610
HWRILX

AREA WEATHER ROUNDUP
NATIONAL WEATHER SERVICE, LINCOLN IL
1100 AM CDT FRI JUL 03 2015


CITY           SKY/WX    TMP DP  RH WIND       PRES   REMARKS
BLOOMINGTON    PTSUNNY   70  63  78 NE9       29.96S
CHAMPAIGN      MOSUNNY   73  64  73 E10       29.93S
DANVILLE       PTSUNNY   71  63  76 E5        29.91R
DECATUR        MOSUNNY   72  64  76 NE5       29.93R
EFFINGHAM      MOSUNNY   75  64  68 N3        29.93R
FLORA          SUNNY     76  69  78 N6        29.91R
GALESBURG      SUNNY     71  61  71 N6        29.97S
JACKSONVILLE   PTSUNNY   72  65  77 N7        29.94S
LACON          SUNNY     72  57  58 NE5       29.95F
LAWRENCEVILLE  CLOUDY    74  68  81 CALM      29.89R
LITCHFIELD     MOSUNNY   71  64  77 N5        29.93S
$$


CITY           SKY/WX    TMP DP  RH WIND       PRES   REMARKS
LINCOLN        PTSUNNY   70  61  73 CALM      29.95R
MACOMB         MOSUNNY   70  62  75 NE6       29.98F
MATTOON        CLOUDY    73  65  75 N6        29.91R
MT CARMEL AP   CLOUDY    77  68  73 NE3       29.89R
OLNEY-NOBLE AP CLOUDY    73  68  83 NW3       29.90S
PARIS          MOSUNNY   74  67  77 NE7       29.92S
PEORIA         MOSUNNY   74  61  63 VRB6      29.96S
PONTIAC        PTSUNNY   71  61  70 NE5       29.97S
RANTOUL        MOSUNNY   75  65  70 NE8       29.94R
ROBINSON       CLOUDY    73  66  79 NE3       29.91R
SPRINGFIELD    CLOUDY    72  63  73 N6        29.94R
TAYLORVILLE    CLOUDY    70  64  83 N5        29.94R
$$

...REGIONAL REPORTS...


CITY           SKY/WX    TMP DP  RH WIND       PRES   REMARKS
CHICAGO O`HARE CLOUDY    71  56  58 E5        29.97F
KANKAKEE       PTSUNNY   72  59  63 NE7       29.96S
MOLINE         SUNNY     71  57  61 VRB3      29.97F
MOUNT STERLING NOT AVBL
MOUNT VERNON   CLOUDY    75  66  73 NW3       29.91R
PITTSFIELD     SUNNY     73  64  73 N5        29.96R
QUINCY         SUNNY     72  63  73 N8        29.96S
ROCKFORD       CLOUDY    72  57  59 SW6       30.00S
$$


CITY           SKY/WX    TMP DP  RH WIND       PRES   REMARKS
BURLINGTON     SUNNY     73  61  65 N8        29.97S
CEDAR RAPIDS   SUNNY     70  55  59 NE5       29.99S
DES MOINES     MOSUNNY   73  55  53 NE9       30.00S
KIRKSVILLE     MOSUNNY   72  59  63 NE8       29.99S
OTTUMWA        MOSUNNY   71  58  63 VRB7      29.98S
ST LOUIS       MOSUNNY   76  65  68 N8        29.93S
$$


CITY           SKY/WX    TMP DP  RH WIND       PRES   REMARKS
TERRE HAUTE    CLOUDY    74  66  76 NE8       29.90R
EVANSVILLE     CLOUDY    76  69  79 CALM      29.89R
INDIANAPOLIS   CLOUDY    68  60  75 N8        29.90R
LAFAYETTE      CLOUDY    70  59  68 NE8       29.93S
MADISON        MOSUNNY   69  53  56 CALM      30.00S
MILWAUKEE      PTSUNNY   68  55  63 VRB3      30.00S
$$




USA.gov is the U.S. government's official web portal to all federal, state and local government web resources and services.